Tracking 29892 objects as of 21-Nov-2024
HD Live streaming from Space Station
objects crossing your sky now

STARLINK-11201

Track STARLINK-11201 now!
10-day predictions
STARLINK-11201 is classified as:


NORAD ID: 60113
Int'l Code: 2024-118A
Perigee: 366.1 km
Apogee: 367.6 km
Inclination: 53.2 °
Period: 91.7 minutes
Semi major axis: 6737 km
RCS: Unknown
Launch date: June 24, 2024
Source: United States (US)
Launch site: AIR FORCE WESTERN TEST RANGE (AFWTR)
Your satellite tracking list
Your tracking list is empty




NASA's NSSDC Master Catalog

Two Line Element Set (TLE):
1 60113U 24118A   24324.49115635  .00020430  00000-0  17293-3 0  9990
2 60113  53.1571  44.1429 0001103  68.9494 291.1642 15.69729315 24249
Source of the keplerian elements: AFSPC